Location: D�rnast
(49.6426°N, 11.9755°E)
Time: 07:03:48
(UTC+00:00)

BlueWalker 3 - Pass Details

Date: 08 December 2022
Orbit: 499 x 517 km, 53.2° (Epoch: 28 January)

Event Time Altitude Azimuth Distance (km) Brightness Sun altitude
Rises 17:22:27 0° 293° (WNW) 2,632 6.5 -20.0°
Reaches altitude 10° 17:24:41 10° 290° (WNW) 1,739 5.5 -20.4°
Maximum altitude 17:28:33 57° 211° (SSW) 604 2.4 -21.0°
Enters shadow 17:29:35 41° 157° (SSE) 744 2.6 -21.2°
